Location: Cactus School
(34.5700°N, 118.0931°W)
Time: 07:58:04
(UTC-08:00)

Tiangong - Visible Passes

Search period start: 27 February 2024 00:00
Search period end: 08 March 2024 00:00
Orbit: 375 x 385 km, 41.5° (Epoch: 26 February)

Date Brightness Start Highest point End Pass type
(mag) Time Alt. Az. Time Alt. Az. Time Alt. Az.
27 Feb -2.2 18:51:34 10° SW 18:54:38 68° SSE 18:55:40 37° E visible
28 Feb -0.9 19:27:19 10° W 19:29:52 37° NW 19:29:52 37° NW visible
29 Feb -2.0 18:25:53 10° WSW 18:28:58 67° NNW 18:31:47 12° ENE visible
29 Feb 1.2 20:03:26 10° WNW 20:03:54 13° WNW 20:03:54 13° WNW visible
01 Mar -0.6 19:01:47 10° WNW 19:04:33 29° NNW 19:05:40 23° NNE visible
02 Mar 0.2 19:37:43 10° NW 19:39:25 20° NNW 19:39:25 20° NNW visible
03 Mar -0.4 18:35:58 10° WNW 18:38:34 24° N 18:40:58 11° NE visible
04 Mar -0.4 19:11:36 10° NW 19:14:07 22° N 19:14:31 21° NNE visible
05 Mar 0.3 19:46:42 10° NW 19:47:59 20° NW 19:47:59 20° NW visible
06 Mar -0.6 18:45:03 10° NW 18:47:41 24° N 18:49:19 16° NE visible
07 Mar -1.5 19:19:52 10° NW 19:22:41 43° N 19:22:41 43° N visible
